Location: Kerentrech
(47.7567°N, 3.3595°W)
Time: 18:36:56
(UTC+00:00)

Cosmos 2360 Rocket - Pass Details

Date: 17 February 2020
Orbit: 836 x 843 km, 71.0° (Epoch: 29 March)

Event Time Altitude Azimuth Distance (km) Brightness Sun altitude
Exits shadow 04:26:24 13° 345° (NNW) 2,287 4.4 -29.2°
Drops below altitude 10° 04:27:37 10° 357° (N) 2,466 4.7 -29.0°
Sets 04:31:25 0° 22° (NNE) 3,402 5.8 -28.4°
